Location: *
(41.0833°N, 73.4167°W)
Time: 19:16:41
(UTC+00:00)

Lacrosse 5 - Pass Details

Date: 22 October 2019
Orbit: 715 x 724 km, 57.0° (Epoch: 12 November)

Event Time Altitude Azimuth Distance (km) Brightness Sun altitude
Rises 00:58:14 0° 304° (NW) 3,120 6.1 -33.3°
Reaches altitude 10° 01:00:57 10° 292° (WNW) 2,196 5.2 -33.8°
Enters shadow 01:04:27 25° 249° (WSW) 1,432 3.8 -34.4°
